Simultaneous Nadir Overpasses (SNOs) Predictions

Prediction of SNOs between AQUA and NPP Satellite Orbit:

Table of predicted SNOs for the next 14.0 days since TLE Epoch: 3/5/2022
Index Date (AQUA) Time (AQUA) Lat,Lon (AQUA) SZA (AQUA ) Date (NPP) Time (NPP) Lat,Lon (NPP) SZA (NPP ) Distance(km) Time Diff (sec)
1 03/06/2022 05:31:34 76.67, -21.25 102.45 03/06/2022 05:30:49 76.66, -21.31 102.50 1.69 45
2 03/06/2022 06:20:41 -77.60, 149.96 78.69 03/06/2022 06:21:13 -77.60, 149.98 78.73 0.60 32
3 03/08/2022 21:47:46 77.13, 96.35 100.85 03/08/2022 21:47:34 77.12, 96.31 100.87 1.10 12
4 03/08/2022 22:36:54 -77.95, -92.59 80.19 03/08/2022 22:37:59 -77.95, -92.53 80.25 1.38 65
5 03/11/2022 13:14:49 -76.74, 43.21 79.75 03/11/2022 13:13:53 -76.74, 43.22 79.70 0.39 56
6 03/11/2022 14:03:56 77.60,-145.81 99.20 03/11/2022 14:04:17 77.61,-145.76 99.17 1.32 21
7 03/14/2022 05:31:04 -77.03, 160.18 81.16 03/14/2022 05:30:42 -77.02, 160.11 81.13 1.84 22
8 03/14/2022 06:20:12 77.83, -28.90 97.84 03/14/2022 06:21:07 77.83, -28.92 97.80 0.54 55
9 03/16/2022 20:58:03 76.77, 107.51 98.09 03/16/2022 20:56:57 76.77, 107.57 98.13 1.88 66



Historial Predications of SNOs between AQUA and NPP
